Terminal Aerodrome Forecast
Issued by NWS Detroit/Pontiac, MI

Home | Current Version | Previous Version | Text Only | Print | Product List | Glossary On
Versions: 1 2 3 4 5 6 7 8 9 10 11 12 13 14 15 16 17 18 19 20 21 22 23 24 25 26 27 28 29 30 31 32 33 34 35 36 37 38 39 40 41 42 43 44 45 46 47 48 49 50
376
FTUS43 KDTX 200303 AAA
TAFDTW
TAF AMD
KDTW 200303Z 2003/2106 09005KT P6SM SCT060 SCT250
      TEMPO 2010/2012 5SM BR
     FM201300 20007KT P6SM BKN200
     FM202200 22005KT P6SM SCT060=

USA.gov is the U.S. government's official web portal to all federal, state and local government web resources and services.